CZ-6A DEB

Satellite information

Favourite Embed

Satellite Type and Status

DEBRISIN ORBIT

Key statistics

Satellite CZ-6A DEB at a glance.

Uptime

390

Days in orbit

Revolutions

≈ 14.1

Per day

Orbit

LEO

Low Earth Orbit

Inclination

89.0

Latest

Satellite identification and parameters

Extended collection of information and parameters for CZ-6A DEB.

Object identification

Identified? True

Debris? True

Object name: CZ-6A DEB

International designator: 2024-140SR

Object number (NORAD): 61280

Object ID (CCSDS): 61280

Country: PEOPLES REPUBLIC OF CHINA (PRC)

Current information (Y/N): Y

RCS size: SMALL

Orbital parameters

Period: 102.382 minutes

Inclination: 88.9915 deg

SMA: 7249.509 km

Apoapsis: 964.802 km

Periapsis: 777.947 km

RAAN: 307.9209 deg

Eccentricy: 0.01288741

Argument of periapsis: 105.3989 deg

Mean anomaly: 256.1474 deg

Mean motion: 14.06500382 rev/day

Mean motion (dot): 0.00002368 rev/day2

B* drag term: 0.0013198365 1/REarth

Two-line elements (TLE)

Creation date: Aug. 30, 2025, 11:24 a.m.

Reference frame: TEME

Reference center: EARTH

Epoch: Aug. 30, 2025, 3:17 a.m. UTC

TLE line 0: 0 CZ-6A DEB

TLE line 1: 1 61280U 24140SR 25242.13703514 .00002368 00000-0 13198-2 0 9990

TLE line 2: 2 61280 88.9915 307.9209 0128874 105.3989 256.1474 14.06500382 51682

Live tracking on map

Real-time ground track for satellite CZ-6A DEB.

In-orbit conjunctions

A list of the most updated potential collisions computed for object CZ-6A DEB.

Target Orbit TCA Probability of collision Miss distance Type
CZ-6A DEB SSO 2025-04-10 19:01:16 0.0001215606 35.0 (m) DEBRIS
COSMOS 2334 LEO 2025-03-15 12:01:05 0.0001862614 741.0 (m) PAYLOAD
FENGYUN 1C DEB SSO 2025-02-22 09:20:03 0.0001316362 607.0 (m) DEBRIS
CZ-6A DEB LEO 2024-12-29 21:51:22 0.0001302649 273.0 (m) DEBRIS
DELTA 1 DEB SSO 2024-12-21 17:10:52 0.0002008059 401.0 (m) DEBRIS

Associated space launch

18 Low Earth Orbit communication satellites with Ku, Q and V band payloads for the G60 constellation operated by Shanghai Spacecom Satellite Technology (SSST) with funding backed by the Shanghai local government. Initial constellation will consist of 1296 satellites by 2027 with long term plans to expand it to 12000 satellites.

CZ-6A DEB was lifted into orbit during the mission ‘Long March 6A | G60 Polar Group 01’, on board a Long March 6A space rocket.

The launch took place on Aug. 6, 2024, 6:42 a.m. from Launch Complex 9A.

For more information about the launch, click the button.

Launch to space Long March 6A | G60 Polar Group 01
Long March 6A | G60 Polar Group 01

Agency: N/A

Status: Launch Successful

Launch date: Aug. 6, 2024, 6:42 a.m. UTC

Rocket: Long March 6A

Launch pad: Launch Complex 9A

Location: Taiyuan Satellite Launch Center, People's Republic of China

...

Latest news about this satellite

News about space launch
Brightness of first Chinese broadband constellation satellites alarms astronomers

The first satellites of a Chinese broadband constellation are significantly brighter than those of Western systems, posing a new challenge for astronomers.

News about space launch
Chinese rocket stage breaks up into cloud of more than 700 pieces of space debris

HELSINKI — A Chinese Long March 6A rocket’s upper stage has fragmented into a cloud of over 700 pieces of space debris, adding to concerns about long-term orbital safety. China […]

News about space launch
China's Thousand Sails Megaconstellation Kicks Off with Dangerous Debris Field

China's Thousand Sails Megaconstellation Kicks Off with Dangerous Debris Field


Newsletter sign-up

Weekly statistics, charts and insights to help you stay on top of the space industry.